FW4110 Weather Reports


time (UTC)temp
C
wind
direction
speed
KPH
gust
KPH
rain 1hr
cm
rain 24hr
cm
rain mn
cm
humidity
%
barometer
mb
20260503191505 23 263 11.3 25.7 0.00 0.00 0.00 54 1015.1
20260503190001 23 247 6.4 22.5 0.00 0.00 0.00 53 1015.5
20260503184556 22 283 6.4 24.1 0.00 0.00 0.00 53 1016.1
20260503183059 22 161 11.3 25.7 0.00 0.00 0.00 55 1016.3
20260503181545 21 265 8.0 17.7 0.00 0.00 0.00 56 1016.7
20260503180052 21 264 6.4 22.5 0.00 0.00 0.00 55 1017.1
20260503174535 21 309 3.2 19.3 0.00 0.00 0.00 56 1017.6
20260503173031 20 204 9.7 24.1 0.00 0.00 0.00 56 1018.4
20260503171535 20 335 6.4 24.1 0.00 0.00 0.00 57 1018.6
20260503081551 5 180 0.0 0.0 0.00 0.00 0.00 83 1021.5
20260503071547 6 184 0.0 1.6 0.00 0.00 0.00 81 1021.5
20260503054525 5 32 0.0 0.0 0.00 0.00 0.00 83 1022.1
20260503053015 6 32 0.0 0.0 0.00 0.00 0.00 82 1022.2
20260503051512 6 32 0.0 0.0 0.00 0.00 0.00 81 1022.2
20260503050013 6 32 0.0 0.0 0.00 0.00 0.00 81 1022.1
20260503044508 6 32 0.0 0.0 0.00 0.00 0.00 84 1022.0
20260503043005 6 32 0.0 0.0 0.00 0.00 0.00 87 1022.0
20260503041503 6 32 0.0 0.0 0.00 0.00 0.00 87 1021.9
20260503034559 7 32 0.0 0.0 0.00 0.00 0.00 86 1021.9
20260503033101 7 32 0.0 0.0 0.00 0.00 0.00 86 1021.9
20260503031556 7 32 0.0 0.0 0.00 0.00 0.00 82 1021.9
20260503030054 7 32 0.0 0.0 0.00 0.00 0.00 85 1021.8
20260503024600 8 32 0.0 0.0 0.00 0.00 0.00 84 1021.7
20260503023050 8 32 0.0 0.0 0.00 0.00 0.00 82 1021.8
20260503021556 8 32 0.0 0.0 0.00 0.00 0.00 82 1021.7
20260503020054 8 32 0.0 0.0 0.00 0.00 0.00 82 1021.7
20260503014617 8 32 0.0 0.0 0.00 0.00 0.00 82 1021.6
20260503013044 9 32 0.0 0.0 0.00 0.00 0.00 81 1021.4
20260503011548 10 32 0.0 0.0 0.00 0.00 0.00 79 1021.3
20260503010049 11 32 0.0 0.0 0.00 0.00 0.00 78 1021.2
20260503004541 12 32 0.0 0.0 0.00 0.00 0.00 75 1021.2
20260503003034 14 32 0.0 0.0 0.00 0.00 0.00 70 1021.2
20260503001534 15 32 0.0 1.6 0.00 0.00 0.00 68 1021.2
20260503000031 15 32 0.0 6.4 0.00 0.00 0.00 62 1021.2
20260502234529 15 352 1.6 6.4 0.00 0.00 0.00 61 1021.1
20260502233028 15 343 3.2 12.9 0.00 0.00 0.00 58 1021.0
20260502231525 16 50 3.2 12.9 0.00 0.00 0.00 59 1021.2
20260502230022 16 15 6.4 11.3 0.00 0.00 0.00 58 1021.2
20260502224523 16 21 4.8 11.3 0.00 0.00 0.00 60 1021.2
20260502223019 15 10 4.8 14.5 0.00 0.00 0.00 58 1021.2
20260502221515 16 322 1.6 6.4 0.00 0.00 0.00 58 1021.2
20260502220014 16 348 8.0 20.9 0.00 0.00 0.00 58 1021.2
20260502214512 16 75 4.8 12.9 0.00 0.00 0.00 59 1021.2
20260502213007 15 43 6.4 12.9 0.00 0.00 0.00 59 1021.3
20260502211508 15 327 4.8 12.9 0.00 0.00 0.00 60 1021.3
20260502210002 15 327 4.8 12.9 0.00 0.00 0.00 58 1021.3
20260502204600 15 349 6.4 11.3 0.00 0.00 0.00 58 1021.4
20260502203102 15 342 8.0 14.5 0.00 0.00 0.00 61 1021.6
20260502201600 15 334 3.2 12.9 0.00 0.00 0.00 61 1021.8
20260502200055 15 308 4.8 11.3 0.00 0.00 0.00 61 1022.0
20260502194603 15 13 3.2 14.5 0.00 0.00 0.00 61 1022.2
20260502193052 14 12 6.4 12.9 0.00 0.00 0.00 61 1022.3